{"data":{"norad_id":50832,"epoch":"2026-05-24T13:29:48.771456Z","epoch_age_seconds":108705,"freshness":"FRESH","line1":"1 50832U 22001AF  26144.56237004 -.00000290  00000+0 -15779-6 0  9994","line2":"2 50832  53.2150 198.5606 0001151 101.1960 258.9162 15.08832645241728","mean_motion":15.08832645,"eccentricity":0.0001151,"inclination_deg":53.215,"raan_deg":198.5606,"arg_perigee_deg":101.196,"mean_anomaly_deg":258.9162,"bstar":-1.5779e-7,"rev_number":24172,"period_min":95.438019900477,"perigee_km":538.96961972764,"apogee_km":540.56212096839,"semimajor_km":6917.902870348,"source":"CELESTRAK","updated_at":"2026-05-25T13:38:16.880040Z"}}